Check out our new BloomSky Weather System.

Active alerts


No alerts


Thunder radar  blitzortung!


Rain radar more information rain snow radar


Visit our other weather sites:

Template documentation
and downloads

And another site



Weather Underground History page Text

Daily Summary for March 17, 2017 Units:  English    Metric   Both
« Previous Day
Next Day »
Daily Weekly Monthly Yearly Custom
  High: Low: Average:
Temperature: 80.4 °F 65.3 °F 71.2 °F
Dew Point: 66.7 °F 63.3 °F 64.9 °F
Humidity: 94 % 61 % 81 %
Wind Speed: 14.0 mph 0.0 mph 5.2 mph
Wind Gust: 19.0 mph - -
Wind:- - SSE
Pressure: 30.22 in 30.12 in -
Precipitation: 0.00 in    
Historical Graphs
 
 
Tabular Data for March 17, 2017
Time Temperature Dew Point Pressure Wind Wind Speed Wind Gust Humidity Rainfall Rate (Hourly)
00:02 68.2 °F 65.1 °F 30.17 in SSE 4.0 mph 11.0 mph 90 % 0.00 in
00:07 68.0 °F 64.9 °F 30.17 in South 4.0 mph 11.0 mph 90 % 0.00 in
00:12 67.8 °F 64.8 °F 30.17 in SSE 3.0 mph 11.0 mph 90 % 0.00 in
00:17 67.6 °F 64.6 °F 30.17 in SE 8.0 mph 11.0 mph 90 % 0.00 in
00:22 67.6 °F 64.6 °F 30.17 in SSE 7.0 mph 11.0 mph 90 % 0.00 in
00:27 67.5 °F 64.8 °F 30.17 in ESE 3.0 mph 11.0 mph 91 % 0.00 in
00:32 67.5 °F 64.8 °F 30.17 in SSE 5.0 mph 11.0 mph 91 % 0.00 in
00:37 67.5 °F 64.8 °F 30.17 in SSE 7.0 mph 11.0 mph 91 % 0.00 in
00:41 67.5 °F 64.8 °F 30.17 in South 7.0 mph 11.0 mph 91 % 0.00 in
00:47 67.3 °F 64.6 °F 30.17 in SE 8.0 mph 11.0 mph 91 % 0.00 in
00:52 67.3 °F 64.6 °F 30.16 in South 4.0 mph 11.0 mph 91 % 0.00 in
00:57 67.3 °F 64.6 °F 30.17 in SSE 6.0 mph 11.0 mph 91 % 0.00 in
01:02 67.1 °F 64.4 °F 30.16 in SE 10.0 mph 11.0 mph 91 % 0.00 in
01:07 67.1 °F 64.8 °F 30.16 in SSE 3.0 mph 10.0 mph 92 % 0.00 in
01:12 66.9 °F 64.6 °F 30.16 in ESE 3.0 mph 10.0 mph 92 % 0.00 in
01:17 66.9 °F 64.6 °F 30.16 in South 2.0 mph 10.0 mph 92 % 0.00 in
01:22 66.9 °F 64.6 °F 30.16 in SE 8.0 mph 10.0 mph 92 % 0.00 in
01:27 67.1 °F 64.8 °F 30.16 in SE 4.0 mph 10.0 mph 92 % 0.00 in
01:32 67.1 °F 64.8 °F 30.16 in SE 4.0 mph 9.0 mph 92 % 0.00 in
01:37 67.1 °F 64.8 °F 30.16 in SSE 7.0 mph 11.0 mph 92 % 0.00 in
01:42 67.3 °F 64.9 °F 30.16 in South 5.0 mph 11.0 mph 92 % 0.00 in
01:47 67.3 °F 64.9 °F 30.16 in South 3.0 mph 11.0 mph 92 % 0.00 in
01:52 67.3 °F 64.9 °F 30.16 in SSE 6.0 mph 11.0 mph 92 % 0.00 in
01:57 67.3 °F 64.6 °F 30.16 in SSE 4.0 mph 11.0 mph 91 % 0.00 in
02:02 67.3 °F 64.6 °F 30.16 in SE 5.0 mph 12.0 mph 91 % 0.00 in
02:07 67.1 °F 64.4 °F 30.16 in SSE 6.0 mph 12.0 mph 91 % 0.00 in
02:12 66.9 °F 64.2 °F 30.16 in SE 3.0 mph 12.0 mph 91 % 0.00 in
02:17 66.9 °F 64.6 °F 30.16 in ESE 3.0 mph 11.0 mph 92 % 0.00 in
02:22 66.7 °F 64.4 °F 30.16 in SE 6.0 mph 11.0 mph 92 % 0.00 in
02:27 66.7 °F 64.4 °F 30.16 in ESE 6.0 mph 11.0 mph 92 % 0.00 in
02:32 66.7 °F 64.4 °F 30.16 in SE 3.0 mph 11.0 mph 92 % 0.00 in
02:37 66.6 °F 64.2 °F 30.16 in SE 6.0 mph 11.0 mph 92 % 0.00 in
02:42 66.6 °F 64.2 °F 30.15 in South 3.0 mph 9.0 mph 92 % 0.00 in
02:47 66.6 °F 64.2 °F 30.15 in SSE 4.0 mph 9.0 mph 92 % 0.00 in
02:52 66.6 °F 64.4 °F 30.15 in SSE 5.0 mph 9.0 mph 93 % 0.00 in
02:57 66.6 °F 64.4 °F 30.15 in SE 1.0 mph 9.0 mph 93 % 0.00 in
03:02 66.4 °F 64.2 °F 30.15 in South 5.0 mph 9.0 mph 93 % 0.00 in
03:07 66.4 °F 64.2 °F 30.15 in SSE 2.0 mph 8.0 mph 93 % 0.00 in
03:12 66.4 °F 64.2 °F 30.15 in SE 6.0 mph 10.0 mph 93 % 0.00 in
03:17 66.4 °F 64.2 °F 30.15 in SSE 4.0 mph 10.0 mph 93 % 0.00 in
03:22 66.4 °F 64.2 °F 30.15 in SSE 3.0 mph 10.0 mph 93 % 0.00 in
03:27 66.4 °F 64.2 °F 30.15 in East 4.0 mph 8.0 mph 93 % 0.00 in
03:32 66.4 °F 64.2 °F 30.14 in SE 4.0 mph 8.0 mph 93 % 0.00 in
03:37 66.2 °F 64.0 °F 30.14 in SSE 4.0 mph 10.0 mph 93 % 0.00 in
03:42 66.2 °F 64.0 °F 30.14 in SE 4.0 mph 10.0 mph 93 % 0.00 in
03:47 66.2 °F 64.0 °F 30.14 in South 3.0 mph 10.0 mph 93 % 0.00 in
03:52 66.0 °F 64.2 °F 30.14 in South 3.0 mph 7.0 mph 94 % 0.00 in
03:57 66.0 °F 64.2 °F 30.14 in SE 4.0 mph 7.0 mph 94 % 0.00 in
04:02 66.0 °F 64.2 °F 30.14 in SE 4.0 mph 7.0 mph 94 % 0.00 in
04:07 66.0 °F 64.2 °F 30.14 in South 3.0 mph 8.0 mph 94 % 0.00 in
04:12 65.8 °F 64.0 °F 30.14 in SE 5.0 mph 8.0 mph 94 % 0.00 in
04:17 65.8 °F 64.0 °F 30.14 in SE 4.0 mph 9.0 mph 94 % 0.00 in
04:23 65.8 °F 64.0 °F 30.14 in South 2.0 mph 9.0 mph 94 % 0.00 in
04:28 65.8 °F 64.0 °F 30.14 in South 2.0 mph 9.0 mph 94 % 0.00 in
04:33 65.8 °F 64.0 °F 30.14 in SE 2.0 mph 7.0 mph 94 % 0.00 in
04:38 65.7 °F 63.9 °F 30.14 in SSW 3.0 mph 7.0 mph 94 % 0.00 in
04:43 65.7 °F 63.9 °F 30.14 in SE 3.0 mph 7.0 mph 94 % 0.00 in
04:48 65.7 °F 63.9 °F 30.14 in ESE 4.0 mph 7.0 mph 94 % 0.00 in
04:53 65.7 °F 63.9 °F 30.14 in SSE 1.0 mph 6.0 mph 94 % 0.00 in
04:58 65.5 °F 63.7 °F 30.14 in SSE 3.0 mph 6.0 mph 94 % 0.00 in
05:03 65.5 °F 63.7 °F 30.14 in ESE 2.0 mph 5.0 mph 94 % 0.00 in
05:08 65.5 °F 63.7 °F 30.14 in SE 3.0 mph 5.0 mph 94 % 0.00 in
05:13 65.5 °F 63.7 °F 30.15 in SSW 4.0 mph 6.0 mph 94 % 0.00 in
05:18 65.7 °F 63.9 °F 30.15 in SSE 4.0 mph 6.0 mph 94 % 0.00 in
05:23 65.7 °F 63.9 °F 30.15 in SE 1.0 mph 6.0 mph 94 % 0.00 in
05:28 65.7 °F 63.9 °F 30.15 in SE 1.0 mph 5.0 mph 94 % 0.00 in
05:33 65.7 °F 63.9 °F 30.15 in SE 2.0 mph 5.0 mph 94 % 0.00 in
05:38 65.7 °F 63.9 °F 30.15 in South 2.0 mph 5.0 mph 94 % 0.00 in
05:43 65.7 °F 63.9 °F 30.15 in South 4.0 mph 5.0 mph 94 % 0.00 in
05:48 65.7 °F 63.9 °F 30.15 in SSE 4.0 mph 5.0 mph 94 % 0.00 in
05:53 65.7 °F 63.9 °F 30.16 in SSW 4.0 mph 5.0 mph 94 % 0.00 in
05:58 65.7 °F 63.9 °F 30.16 in SSE 3.0 mph 5.0 mph 94 % 0.00 in
06:03 65.8 °F 64.0 °F 30.16 in SSE 2.0 mph 5.0 mph 94 % 0.00 in
06:08 65.8 °F 64.0 °F 30.16 in ESE 2.0 mph 5.0 mph 94 % 0.00 in
06:13 65.8 °F 64.0 °F 30.16 in SE 5.0 mph 5.0 mph 94 % 0.00 in
06:18 65.8 °F 64.0 °F 30.16 in South 1.0 mph 6.0 mph 94 % 0.00 in
06:23 65.8 °F 63.7 °F 30.16 in ESE 2.0 mph 6.0 mph 93 % 0.00 in
06:28 65.8 °F 63.7 °F 30.16 in SE 1.0 mph 6.0 mph 93 % 0.00 in
06:33 65.8 °F 63.7 °F 30.16 in South 4.0 mph 6.0 mph 93 % 0.00 in
06:38 65.8 °F 63.7 °F 30.16 in ESE 2.0 mph 6.0 mph 93 % 0.00 in
06:43 65.8 °F 63.7 °F 30.16 in SSE 4.0 mph 6.0 mph 93 % 0.00 in
06:48 65.8 °F 63.7 °F 30.16 in SE 4.0 mph 7.0 mph 93 % 0.00 in
06:53 65.8 °F 63.7 °F 30.16 in ESE 2.0 mph 7.0 mph 93 % 0.00 in
06:58 65.8 °F 63.7 °F 30.16 in SSE 1.0 mph 7.0 mph 93 % 0.00 in
07:03 65.7 °F 63.5 °F 30.17 in ESE 2.0 mph 5.0 mph 93 % 0.00 in
07:08 65.7 °F 63.5 °F 30.17 in Calm   5.0 mph 93 % 0.00 in
07:13 65.7 °F 63.5 °F 30.17 in ESE 3.0 mph 5.0 mph 93 % 0.00 in
07:18 65.7 °F 63.5 °F 30.17 in SE 2.0 mph 5.0 mph 93 % 0.00 in
07:23 65.7 °F 63.5 °F 30.17 in ESE 2.0 mph 5.0 mph 93 % 0.00 in
07:28 65.5 °F 63.3 °F 30.17 in ESE 3.0 mph 5.0 mph 93 % 0.00 in
07:33 65.5 °F 63.3 °F 30.17 in SE 1.0 mph 5.0 mph 93 % 0.00 in
07:38 65.5 °F 63.3 °F 30.17 in SE 2.0 mph 5.0 mph 93 % 0.00 in
07:43 65.3 °F 63.5 °F 30.17 in SE 1.0 mph 5.0 mph 94 % 0.00 in
07:48 65.3 °F 63.5 °F 30.17 in SSE 3.0 mph 4.0 mph 94 % 0.00 in
07:53 65.5 °F 63.7 °F 30.17 in SE 1.0 mph 4.0 mph 94 % 0.00 in
07:58 65.7 °F 63.9 °F 30.17 in ESE 4.0 mph 4.0 mph 94 % 0.00 in
08:03 65.7 °F 63.9 °F 30.17 in SE 2.0 mph 5.0 mph 94 % 0.00 in
08:08 65.7 °F 63.9 °F 30.17 in ESE 3.0 mph 5.0 mph 94 % 0.00 in
08:13 65.8 °F 64.0 °F 30.18 in SSW 1.0 mph 5.0 mph 94 % 0.00 in
08:18 66.0 °F 64.2 °F 30.18 in SE 3.0 mph 4.0 mph 94 % 0.00 in
08:24 66.0 °F 63.9 °F 30.18 in SE 3.0 mph 4.0 mph 93 % 0.00 in
08:29 66.2 °F 64.0 °F 30.18 in ESE 3.0 mph 4.0 mph 93 % 0.00 in
08:34 66.4 °F 64.2 °F 30.18 in ESE 3.0 mph 5.0 mph 93 % 0.00 in
08:39 66.6 °F 64.4 °F 30.18 in ESE 4.0 mph 5.0 mph 93 % 0.00 in
08:44 66.7 °F 64.4 °F 30.19 in SSE 2.0 mph 6.0 mph 92 % 0.00 in
08:49 66.9 °F 64.6 °F 30.19 in ESE 3.0 mph 6.0 mph 92 % 0.00 in
08:54 67.1 °F 64.8 °F 30.19 in East 4.0 mph 6.0 mph 92 % 0.00 in
08:59 67.3 °F 64.9 °F 30.19 in SE 3.0 mph 6.0 mph 92 % 0.00 in
09:04 67.6 °F 65.3 °F 30.19 in South 4.0 mph 6.0 mph 92 % 0.00 in
09:09 68.2 °F 65.5 °F 30.19 in SE 5.0 mph 7.0 mph 91 % 0.00 in
09:14 68.7 °F 65.7 °F 30.19 in SE 8.0 mph 8.0 mph 90 % 0.00 in
09:19 69.1 °F 65.7 °F 30.19 in SSE 5.0 mph 10.0 mph 89 % 0.00 in
09:24 69.6 °F 65.8 °F 30.19 in SE 6.0 mph 10.0 mph 88 % 0.00 in
09:29 70.2 °F 66.0 °F 30.19 in ESE 9.0 mph 12.0 mph 87 % 0.00 in
09:34 70.3 °F 66.2 °F 30.19 in SSE 5.0 mph 12.0 mph 87 % 0.00 in
09:39 70.9 °F 66.6 °F 30.19 in East 9.0 mph 12.0 mph 86 % 0.00 in
09:44 71.1 °F 66.4 °F 30.19 in SSE 6.0 mph 14.0 mph 85 % 0.00 in
09:49 71.2 °F 66.2 °F 30.19 in ESE 6.0 mph 14.0 mph 84 % 0.00 in
09:54 71.4 °F 66.4 °F 30.19 in SE 7.0 mph 14.0 mph 84 % 0.00 in
09:59 71.2 °F 65.5 °F 30.19 in South 7.0 mph 13.0 mph 82 % 0.00 in
10:04 71.4 °F 66.0 °F 30.19 in South 11.0 mph 15.0 mph 83 % 0.00 in
10:09 71.4 °F 65.7 °F 30.19 in SSW 10.0 mph 18.0 mph 82 % 0.00 in
10:14 71.6 °F 66.2 °F 30.19 in SSE 5.0 mph 18.0 mph 83 % 0.00 in
10:19 72.0 °F 65.8 °F 30.20 in SSE 5.0 mph 18.0 mph 81 % 0.00 in
10:24 72.5 °F 66.4 °F 30.20 in South 5.0 mph 15.0 mph 81 % 0.00 in
10:29 72.9 °F 66.0 °F 30.20 in SE 8.0 mph 13.0 mph 79 % 0.00 in
10:34 73.0 °F 66.2 °F 30.20 in SE 6.0 mph 14.0 mph 79 % 0.00 in
10:39 73.4 °F 66.2 °F 30.21 in SE 5.0 mph 14.0 mph 78 % 0.00 in
10:44 73.6 °F 65.8 °F 30.20 in ESE 14.0 mph 14.0 mph 77 % 0.00 in
10:49 73.0 °F 65.5 °F 30.21 in South 10.0 mph 14.0 mph 77 % 0.00 in
10:54 73.2 °F 66.0 °F 30.21 in ESE 7.0 mph 15.0 mph 78 % 0.00 in
10:59 73.6 °F 65.5 °F 30.21 in South 6.0 mph 15.0 mph 76 % 0.00 in
11:04 73.6 °F 65.5 °F 30.21 in SSE 4.0 mph 19.0 mph 76 % 0.00 in
11:09 73.4 °F 65.3 °F 30.21 in SSE 14.0 mph 19.0 mph 76 % 0.00 in
11:14 73.4 °F 65.3 °F 30.21 in ESE 7.0 mph 19.0 mph 76 % 0.00 in
11:19 73.6 °F 65.5 °F 30.21 in SE 2.0 mph 15.0 mph 76 % 0.00 in
11:24 73.9 °F 65.5 °F 30.21 in SSE 4.0 mph 15.0 mph 75 % 0.00 in
11:29 73.9 °F 65.1 °F 30.21 in SSE 7.0 mph 15.0 mph 74 % 0.00 in
11:34 73.9 °F 65.5 °F 30.22 in SSE 7.0 mph 15.0 mph 75 % 0.00 in
11:39 73.9 °F 65.5 °F 30.22 in SSE 4.0 mph 15.0 mph 75 % 0.00 in
11:44 74.1 °F 65.7 °F 30.22 in South 5.0 mph 15.0 mph 75 % 0.00 in
11:49 74.1 °F 65.3 °F 30.22 in SE 7.0 mph 15.0 mph 74 % 0.00 in
11:54 74.8 °F 65.7 °F 30.22 in SSW 4.0 mph 15.0 mph 73 % 0.00 in
12:00 75.0 °F 65.8 °F 30.22 in SSW 2.0 mph 13.0 mph 73 % 0.00 in
12:05 75.4 °F 65.7 °F 30.21 in SE 10.0 mph 13.0 mph 72 % 0.00 in
12:10 75.4 °F 65.3 °F 30.21 in SE 3.0 mph 16.0 mph 71 % 0.00 in
12:15 75.9 °F 66.2 °F 30.21 in SE 5.0 mph 16.0 mph 72 % 0.00 in
12:20 76.1 °F 65.7 °F 30.21 in East 8.0 mph 15.0 mph 70 % 0.00 in
12:25 76.5 °F 65.5 °F 30.21 in SSE 7.0 mph 17.0 mph 69 % 0.00 in
12:30 76.8 °F 65.8 °F 30.21 in SSW 6.0 mph 17.0 mph 69 % 0.00 in
12:35 76.8 °F 64.9 °F 30.21 in SSE 12.0 mph 17.0 mph 67 % 0.00 in
12:40 76.6 °F 65.3 °F 30.21 in South 6.0 mph 14.0 mph 68 % 0.00 in
12:45 76.6 °F 66.2 °F 30.21 in SW 8.0 mph 14.0 mph 70 % 0.00 in
12:50 77.2 °F 65.3 °F 30.20 in SSE 6.0 mph 16.0 mph 67 % 0.00 in
12:55 77.7 °F 66.7 °F 30.20 in SSW 5.0 mph 16.0 mph 69 % 0.00 in
13:00 78.1 °F 66.2 °F 30.20 in SW 11.0 mph 16.0 mph 67 % 0.00 in
13:05 78.4 °F 65.7 °F 30.19 in South 9.0 mph 15.0 mph 65 % 0.00 in
13:10 78.1 °F 64.9 °F 30.19 in SSE 8.0 mph 17.0 mph 64 % 0.00 in
13:15 78.1 °F 65.3 °F 30.19 in SE 11.0 mph 17.0 mph 65 % 0.00 in
13:20 78.1 °F 65.8 °F 30.19 in South 6.0 mph 17.0 mph 66 % 0.00 in
13:25 78.1 °F 65.3 °F 30.18 in SSE 6.0 mph 15.0 mph 65 % 0.00 in
13:30 77.5 °F 65.3 °F 30.18 in SSE 7.0 mph 14.0 mph 66 % 0.00 in
13:35 77.5 °F 65.7 °F 30.18 in South 6.0 mph 14.0 mph 67 % 0.00 in
13:40 78.4 °F 66.2 °F 30.18 in ESE 7.0 mph 17.0 mph 66 % 0.00 in
13:45 78.6 °F 66.4 °F 30.18 in ESE 9.0 mph 17.0 mph 66 % 0.00 in
13:50 78.6 °F 66.4 °F 30.18 in SSE 9.0 mph 17.0 mph 66 % 0.00 in
13:55 78.3 °F 65.5 °F 30.17 in SE 6.0 mph 18.0 mph 65 % 0.00 in
14:00 78.3 °F 65.5 °F 30.17 in SW 13.0 mph 18.0 mph 65 % 0.00 in
14:05 77.9 °F 65.1 °F 30.17 in ESE 10.0 mph 18.0 mph 65 % 0.00 in
14:10 77.7 °F 66.4 °F 30.17 in SSE 8.0 mph 16.0 mph 68 % 0.00 in
14:15 78.8 °F 66.6 °F 30.17 in South 6.0 mph 16.0 mph 66 % 0.00 in
14:20 79.2 °F 65.8 °F 30.17 in South 14.0 mph 17.0 mph 64 % 0.00 in
14:25 79.3 °F 66.6 °F 30.16 in SE 11.0 mph 17.0 mph 65 % 0.00 in
14:30 79.2 °F 65.5 °F 30.16 in SSW 6.0 mph 17.0 mph 63 % 0.00 in
14:35 78.4 °F 65.7 °F 30.16 in South 6.0 mph 16.0 mph 65 % 0.00 in
14:41 78.6 °F 66.4 °F 30.16 in SW 6.0 mph 13.0 mph 66 % 0.00 in
14:45 79.0 °F 65.8 °F 30.15 in ESE 9.0 mph 13.0 mph 64 % 0.00 in
14:51 78.6 °F 65.5 °F 30.15 in SW 7.0 mph 13.0 mph 64 % 0.00 in
14:56 78.3 °F 65.5 °F 30.15 in SSE 7.0 mph 13.0 mph 65 % 0.00 in
15:01 78.3 °F 66.4 °F 30.15 in SSE 11.0 mph 13.0 mph 67 % 0.00 in
15:06 78.4 °F 66.6 °F 30.14 in South 7.0 mph 13.0 mph 67 % 0.00 in
15:11 79.0 °F 66.2 °F 30.14 in SE 6.0 mph 13.0 mph 65 % 0.00 in
15:16 78.6 °F 66.4 °F 30.14 in South 8.0 mph 14.0 mph 66 % 0.00 in
15:21 79.0 °F 65.8 °F 30.14 in SE 10.0 mph 18.0 mph 64 % 0.00 in
15:26 79.5 °F 66.2 °F 30.14 in SSW 5.0 mph 18.0 mph 64 % 0.00 in
15:31 79.9 °F 66.6 °F 30.14 in SE 8.0 mph 18.0 mph 64 % 0.00 in
15:36 79.7 °F 65.5 °F 30.14 in SSE 8.0 mph 17.0 mph 62 % 0.00 in
15:41 80.1 °F 65.8 °F 30.13 in SE 7.0 mph 17.0 mph 62 % 0.00 in
15:46 80.2 °F 65.5 °F 30.13 in ESE 9.0 mph 17.0 mph 61 % 0.00 in
15:51 80.4 °F 65.7 °F 30.13 in SSW 7.0 mph 17.0 mph 61 % 0.00 in
15:56 80.4 °F 65.7 °F 30.13 in SSW 12.0 mph 17.0 mph 61 % 0.00 in
16:01 79.9 °F 65.7 °F 30.13 in ESE 6.0 mph 15.0 mph 62 % 0.00 in
16:06 79.7 °F 66.0 °F 30.13 in SE 10.0 mph 14.0 mph 63 % 0.00 in
16:11 79.2 °F 65.5 °F 30.13 in SE 8.0 mph 14.0 mph 63 % 0.00 in
16:16 79.2 °F 65.8 °F 30.13 in SSE 8.0 mph 13.0 mph 64 % 0.00 in
16:21 79.3 °F 66.0 °F 30.13 in SW 5.0 mph 13.0 mph 64 % 0.00 in
16:26 79.2 °F 65.8 °F 30.13 in SE 8.0 mph 14.0 mph 64 % 0.00 in
16:31 79.2 °F 65.5 °F 30.13 in SSE 7.0 mph 14.0 mph 63 % 0.00 in
16:36 79.0 °F 65.8 °F 30.13 in SE 12.0 mph 14.0 mph 64 % 0.00 in
16:41 79.0 °F 65.8 °F 30.12 in SE 12.0 mph 17.0 mph 64 % 0.00 in
16:46 79.3 °F 66.6 °F 30.13 in South 4.0 mph 17.0 mph 65 % 0.00 in
16:51 79.5 °F 66.2 °F 30.13 in SE 7.0 mph 17.0 mph 64 % 0.00 in
16:56 79.5 °F 66.7 °F 30.13 in SE 8.0 mph 15.0 mph 65 % 0.00 in
17:01 79.7 °F 66.0 °F 30.12 in South 6.0 mph 15.0 mph 63 % 0.00 in
17:06 79.3 °F 66.0 °F 30.13 in SE 6.0 mph 14.0 mph 64 % 0.00 in
17:11 78.8 °F 66.0 °F 30.13 in South 5.0 mph 13.0 mph 65 % 0.00 in
17:16 79.0 °F 66.6 °F 30.13 in SSE 10.0 mph 13.0 mph 66 % 0.00 in
17:21 78.8 °F 66.6 °F 30.13 in ESE 12.0 mph 14.0 mph 66 % 0.00 in
17:26 78.4 °F 65.7 °F 30.13 in SSE 8.0 mph 16.0 mph 65 % 0.00 in
17:31 77.9 °F 65.7 °F 30.13 in SE 7.0 mph 16.0 mph 66 % 0.00 in
17:36 77.7 °F 65.8 °F 30.13 in East 14.0 mph 16.0 mph 67 % 0.00 in
17:41 77.9 °F 66.0 °F 30.13 in SE 6.0 mph 19.0 mph 67 % 0.00 in
17:46 77.5 °F 66.2 °F 30.13 in SSW 6.0 mph 19.0 mph 68 % 0.00 in
17:51 77.5 °F 65.7 °F 30.13 in SSE 6.0 mph 19.0 mph 67 % 0.00 in
17:56 77.0 °F 65.7 °F 30.14 in South 7.0 mph 15.0 mph 68 % 0.00 in
18:01 76.6 °F 65.7 °F 30.14 in SSE 6.0 mph 15.0 mph 69 % 0.00 in
18:06 76.5 °F 65.5 °F 30.14 in SSE 4.0 mph 15.0 mph 69 % 0.00 in
18:11 76.5 °F 65.5 °F 30.14 in SSE 7.0 mph 13.0 mph 69 % 0.00 in
18:16 76.3 °F 65.8 °F 30.14 in SE 5.0 mph 14.0 mph 70 % 0.00 in
18:21 75.7 °F 65.3 °F 30.14 in South 8.0 mph 15.0 mph 70 % 0.00 in
18:26 75.6 °F 65.5 °F 30.14 in SE 8.0 mph 15.0 mph 71 % 0.00 in
18:31 75.4 °F 65.3 °F 30.14 in SE 8.0 mph 16.0 mph 71 % 0.00 in
18:36 75.2 °F 65.1 °F 30.14 in SE 8.0 mph 16.0 mph 71 % 0.00 in
18:41 74.8 °F 65.1 °F 30.15 in SSE 8.0 mph 16.0 mph 72 % 0.00 in
18:46 74.7 °F 65.1 °F 30.15 in SE 5.0 mph 15.0 mph 72 % 0.00 in
18:51 74.7 °F 65.1 °F 30.15 in SE 3.0 mph 15.0 mph 72 % 0.00 in
18:56 74.5 °F 64.9 °F 30.15 in SE 8.0 mph 15.0 mph 72 % 0.00 in
19:02 74.3 °F 65.1 °F 30.15 in South 5.0 mph 13.0 mph 73 % 0.00 in
19:07 73.9 °F 64.8 °F 30.16 in SE 5.0 mph 12.0 mph 73 % 0.00 in
19:12 73.8 °F 64.6 °F 30.15 in SE 5.0 mph 12.0 mph 73 % 0.00 in
19:17 73.6 °F 64.8 °F 30.16 in SE 11.0 mph 13.0 mph 74 % 0.00 in
19:22 73.4 °F 64.6 °F 30.16 in SSE 5.0 mph 13.0 mph 74 % 0.00 in
19:26 73.2 °F 64.8 °F 30.16 in SE 7.0 mph 13.0 mph 75 % 0.00 in
19:31 73.0 °F 64.6 °F 30.16 in ESE 10.0 mph 13.0 mph 75 % 0.00 in
19:37 72.9 °F 64.4 °F 30.16 in SSE 5.0 mph 13.0 mph 75 % 0.00 in
19:42 72.9 °F 64.4 °F 30.16 in East 4.0 mph 13.0 mph 75 % 0.00 in
19:47 72.7 °F 64.8 °F 30.16 in ESE 5.0 mph 13.0 mph 76 % 0.00 in
19:52 72.7 °F 64.8 °F 30.16 in ESE 11.0 mph 11.0 mph 76 % 0.00 in
19:57 72.5 °F 64.6 °F 30.16 in SSE 7.0 mph 12.0 mph 76 % 0.00 in
20:02 72.3 °F 64.8 °F 30.17 in SE 6.0 mph 13.0 mph 77 % 0.00 in
20:07 72.1 °F 64.6 °F 30.17 in SSE 8.0 mph 13.0 mph 77 % 0.00 in
20:12 72.1 °F 64.9 °F 30.17 in SE 6.0 mph 13.0 mph 78 % 0.00 in
20:17 72.0 °F 64.8 °F 30.17 in SE 10.0 mph 11.0 mph 78 % 0.00 in
20:22 71.8 °F 64.6 °F 30.17 in SSE 7.0 mph 13.0 mph 78 % 0.00 in
20:27 71.6 °F 64.8 °F 30.17 in SE 6.0 mph 13.0 mph 79 % 0.00 in
20:32 71.4 °F 64.6 °F 30.17 in SSE 6.0 mph 13.0 mph 79 % 0.00 in
20:37 71.2 °F 64.4 °F 30.17 in SSE 5.0 mph 13.0 mph 79 % 0.00 in
20:42 71.1 °F 64.6 °F 30.17 in SSE 2.0 mph 13.0 mph 80 % 0.00 in
20:47 70.9 °F 64.8 °F 30.17 in SSE 4.0 mph 13.0 mph 81 % 0.00 in
20:52 70.7 °F 64.6 °F 30.17 in SE 6.0 mph 10.0 mph 81 % 0.00 in
20:57 70.5 °F 64.4 °F 30.17 in SSE 4.0 mph 8.0 mph 81 % 0.00 in
21:02 70.3 °F 64.6 °F 30.17 in SSW 2.0 mph 7.0 mph 82 % 0.00 in
21:07 70.3 °F 64.6 °F 30.18 in ESE 3.0 mph 7.0 mph 82 % 0.00 in
21:12 70.2 °F 64.4 °F 30.18 in South 4.0 mph 7.0 mph 82 % 0.00 in
21:17 70.0 °F 64.6 °F 30.18 in SSE 3.0 mph 8.0 mph 83 % 0.00 in
21:22 70.0 °F 64.6 °F 30.18 in SE 6.0 mph 9.0 mph 83 % 0.00 in
21:27 69.8 °F 64.4 °F 30.18 in SSE 6.0 mph 9.0 mph 83 % 0.00 in
21:32 69.6 °F 64.2 °F 30.18 in SE 4.0 mph 9.0 mph 83 % 0.00 in
21:37 69.6 °F 64.6 °F 30.18 in SE 4.0 mph 8.0 mph 84 % 0.00 in
21:42 69.4 °F 64.4 °F 30.18 in SSE 5.0 mph 8.0 mph 84 % 0.00 in
21:47 69.4 °F 64.4 °F 30.18 in SSE 5.0 mph 8.0 mph 84 % 0.00 in
21:52 69.3 °F 64.2 °F 30.19 in SSE 3.0 mph 8.0 mph 84 % 0.00 in
21:57 69.1 °F 64.4 °F 30.19 in SE 5.0 mph 7.0 mph 85 % 0.00 in
22:02 69.1 °F 64.4 °F 30.19 in SSE 4.0 mph 7.0 mph 85 % 0.00 in
22:07 69.1 °F 64.4 °F 30.19 in SE 2.0 mph 7.0 mph 85 % 0.00 in
22:12 69.1 °F 64.4 °F 30.19 in SE 3.0 mph 7.0 mph 85 % 0.00 in
22:17 68.9 °F 64.2 °F 30.19 in South 2.0 mph 7.0 mph 85 % 0.00 in
22:22 68.7 °F 64.4 °F 30.19 in SE 4.0 mph 7.0 mph 86 % 0.00 in
22:27 68.7 °F 64.4 °F 30.19 in SSE 3.0 mph 7.0 mph 86 % 0.00 in
22:32 68.5 °F 64.2 °F 30.19 in SSE 2.0 mph 8.0 mph 86 % 0.00 in
22:37 68.5 °F 64.2 °F 30.20 in SE 2.0 mph 8.0 mph 86 % 0.00 in
22:42 68.5 °F 64.2 °F 30.20 in SE 3.0 mph 8.0 mph 86 % 0.00 in
22:47 68.4 °F 64.4 °F 30.20 in SSW 1.0 mph 5.0 mph 87 % 0.00 in
22:52 68.4 °F 64.4 °F 30.20 in South 3.0 mph 5.0 mph 87 % 0.00 in
22:57 68.4 °F 64.4 °F 30.20 in SE 1.0 mph 6.0 mph 87 % 0.00 in
23:02 68.4 °F 64.4 °F 30.20 in SSW 1.0 mph 6.0 mph 87 % 0.00 in
23:07 68.2 °F 64.2 °F 30.20 in SSE 1.0 mph 6.0 mph 87 % 0.00 in
23:12 68.2 °F 64.4 °F 30.21 in South 1.0 mph 5.0 mph 88 % 0.00 in
23:17 68.0 °F 64.4 °F 30.21 in SE 1.0 mph 5.0 mph 88 % 0.00 in
23:22 68.0 °F 64.4 °F 30.21 in SSE 2.0 mph 5.0 mph 88 % 0.00 in
23:27 67.8 °F 64.2 °F 30.21 in ESE 2.0 mph 5.0 mph 88 % 0.00 in
23:32 67.8 °F 64.2 °F 30.21 in SSE 1.0 mph 5.0 mph 88 % 0.00 in
23:37 67.6 °F 64.0 °F 30.21 in Calm   4.0 mph 88 % 0.00 in
23:42 67.5 °F 63.9 °F 30.21 in SSE 1.0 mph 4.0 mph 88 % 0.00 in
23:47 67.3 °F 63.9 °F 30.21 in SE 1.0 mph 4.0 mph 89 % 0.00 in
23:52 67.1 °F 63.7 °F 30.21 in SSE 1.0 mph 3.0 mph 89 % 0.00 in
23:57 66.9 °F 63.5 °F 30.21 in SSE 1.0 mph 3.0 mph 89 % 0.00 in
Spring, Texas: Villages of Bridgestone
Compliments of Weather Underground - 2.75 mb

Script developed by  Jim McMurry - jmcmurry@mwt.net Adapted for the template by  Wim van der Kuil - Leuven-Template.eu

You find our weather info also at:

UK Metoffice

WeatherCloud

Weather Underground

Mid-South Weather Network

AWEKAS

Citizen Weather Observer Program (CWOP)

HAMweather, WeatherForYou, PWS Weather

Equipment we use:

Weather-station
Davis Vantage Vue

Weather-program
Meteohub

Weather-server
Debian 7.9 x86 (Guest)

Provider
DreamHost

Davis Vantage Vue

Meteohub

Debian 7.9 x86 (Guest)

DreamHost